[[{"header":{"parameterUnit":"m.s-1","parameterCategory":1,"la1":30.2991,"la2":30.254,"lo1":-89.0895,"lo2":-89.0444,"dy":0.0017,"dx":0.0017,"nx":28,"ny":28,"refTime":"2025-08-20T03:00:00:Z","depth":0,"parameterNumber":2,"parameterNumberName":"U-component_of_WINDS"},"data":[0,0,0,0,0,0,0,0,0,0,0,0,0,0,0,0,0,0,0,0,0,0,0,0,0,0,0,0,0,0,0,0,0,0,0,0,0,0,0,0,0,0,0,0,0,0,0,0,0,0,0,0,0,0,0,0,0,0,0.8477,0.8478,0,0.8591,0.8592,0.8594,0.8612,0.8611,0.861,0.8609,0.8733,0.8737,0.8741,0,0,0,0,0,0,0,0,0,0,0,0,0,0.8281,0.8285,0.8477,0.8478,0.848,0.8591,0.8592,0.8594,0.8612,0.8611,0.861,0.8609,0.8732,0.8737,0.8742,0,0,0,0,0,0,0,0,0,0,0,0,0,0.8378,0.8286,0.8477,0.8502,0.8505,0.8591,0.8592,0.8594,0.8613,0.8611,0.861,0.8608,0.873,0.8736,0.8743,0.8812,0,0,0.8762,0.8765,0,0,0,0,0,0,0,0,0.8373,0.8385,0.8497,0.85,0.8504,0.8586,0.8569,0.8668,0.8613,0.8572,0.8609,0.8608,0.8686,0.8696,0.8721,0.8818,0.8823,0.8763,0.8766,0.8769,0.8771,0,0,0,0,0,0,0,0.8366,0.838,0.8522,0.8499,0.8503,0.851,0.8522,0.8588,0.8636,0.8576,0.8577,0.859,0.8688,0.8714,0.8724,0.8825,0.8762,0.8768,0.8772,0.8774,0.8986,0.8987,0,0,0,0,0,0,0.8354,0.8375,0.8519,0.8526,0.8433,0.8515,0.8528,0.8561,0.8636,0.8645,0.8591,0.8591,0.8704,0.8716,0.8728,0.8814,0.8769,0.8775,0.8779,0.8984,0.8986,0.8988,0,0,0,0,0,0,0.8349,0.8366,0.8514,0.8451,0.847,0.852,0.8557,0.8564,0.8591,0.8647,0.8657,0.8609,0.8704,0.8719,0.8791,0.8819,0.8778,0.8784,0.8982,0.8985,0.8987,0.8986,0,0,0,0,0,0,0.8344,0.8365,0.839,0.8451,0.8473,0.8572,0.8558,0.8568,0.8601,0.8601,0.8667,0.8676,0.8704,0.8781,0.8797,0.8827,0.8789,0.898,0.8983,0.8986,0.8984,0.8989,0.8993,0,0,0,0,0,0.8337,0.8387,0.8391,0.8408,0.8505,0.8574,0.8587,0.8615,0.8603,0.863,0.8666,0.8674,0.8813,0.8788,0.8806,0.8838,0.8978,0.8982,0.8986,0.8982,0.8988,0.8993,0,0,0,0,0,0,0.833,0.8395,0.8401,0.8471,0.8517,0.8577,0.8611,0.862,0.8672,0.867,0.8706,0.872,0.879,0.8822,0.8793,0.891,0.8895,0.8903,0.8886,0.8892,0.8896,0.8886,0.8794,0,0,0,0,0,0.8336,0.8384,0.844,0.8497,0.8519,0.8561,0.8592,0.861,0.8659,0.8679,0.8721,0.877,0.8825,0.886,0.8914,0.8989,0.9004,0.9021,0.9025,0.9028,0.9034,0.9076,0.9084,0.9001,0.9001,0.9001,0,0,0.835,0.8392,0.842,0.8497,0.8534,0.8584,0.8577,0.8631,0.867,0.8688,0.8757,0.879,0.8847,0.8921,0.8955,0.8949,0.906,0.9033,0.9035,0.904,0.9081,0.9089,0.9096,0.9004,0.9004,0.9003,0,0,0.8402,0.8438,0.8489,0.8526,0.8582,0.861,0.8622,0.8681,0.8702,0.8772,0.8787,0.8835,0.8928,0.8968,0.9001,0.9068,0.9077,0.9085,0.9107,0.9148,0.9154,0.916,0.9184,0.9192,0.9091,0.9091,0.9091,0,0.8413,0.8487,0.8515,0.8568,0.8601,0.8619,0.8672,0.8707,0.8779,0.8802,0.8794,0.8912,0.8952,0.9035,0.9051,0.9077,0.9093,0.9077,0.9151,0.9157,0.9163,0.9186,0.9194,0.9092,0.9092,0.9092,0.9092,0,0.8498,0.855,0.8585,0.8651,0.8689,0.8742,0.8779,0.8815,0.883,0.8859,0.893,0.8979,0.9042,0.9064,0.908,0.9149,0.9144,0.9143,0.9129,0.9171,0.9193,0.9202,0.9092,0.9092,0.9092,0.9092,0,0,0.8547,0.8627,0.864,0.8669,0.8732,0.8774,0.8829,0.8889,0.8918,0.8968,0.9015,0.9094,0.9093,0.913,0.9151,0.9187,0.9237,0.9182,0.9184,0.919,0.9316,0.9315,0.9324,0.9244,0.9245,0.9247,0.9311,0,0.8605,0.87,0.8727,0.8808,0.8856,0.8874,0.8922,0.8967,0.8996,0.9043,0.9077,0.9131,0.9127,0.9149,0.9186,0.9223,0.9262,0.9219,0.9289,0.9291,0.9272,0.9336,0.9336,0.9393,0.932,0.9321,0.9322,0,0.8685,0.8733,0.8818,0.8874,0.8896,0.8938,0.8995,0.904,0.9092,0.9111,0.9152,0.917,0.9229,0.9212,0.9296,0.9265,0.9296,0.9319,0.9322,0.9329,0.9308,0.9344,0.9413,0.9421,0.9336,0.9335,0.9334,0,0.8711,0.8797,0.8859,0.8884,0.8952,0.8981,0.9011,0.9062,0.9096,0.9147,0.917,0.9228,0.926,0.9306,0.934,0.9324,0.942,0.9406,0.9438,0.9437,0.9456,0.9454,0.953,0.9478,0.9478,0.9478,0.9477,0,0.8772,0.8823,0.8871,0.8909,0.8968,0.9,0.9057,0.9089,0.9133,0.9179,0.92,0.9242,0.9285,0.9334,0.9362,0.9426,0.9441,0.9459,0.9465,0.9456,0.9454,0.9476,0.9473,0.948,0.9479,0.9479,0.9479,0,0.881,0.8844,0.8913,0.8971,0.8987,0.9027,0.9078,0.9117,0.9147,0.9205,0.922,0.9268,0.9327,0.9366,0.9442,0.9461,0.9531,0.9537,0.9512,0.9515,0.9544,0.9541,0.9636,0.965,0.9589,0.959,0.959,0,0.8845,0.8885,0.8947,0.8978,0.9008,0.9058,0.9092,0.9126,0.9162,0.9224,0.9256,0.9315,0.9365,0.9459,0.9502,0.956,0.9567,0.9597,0.9576,0.9566,0.9567,0.9563,0.9567,0.96,0.96,0.96,0.9601,0,0.8905,0.892,0.8968,0.9022,0.9063,0.9108,0.9153,0.9178,0.922,0.9259,0.9318,0.9357,0.9433,0.9493,0.9555,0.9589,0.9602,0.9607,0.9617,0.9608,0.9591,0.96,0.952,0.9604,0.9604,0.9604,0.9604,0.9603,0.8943,0.8979,0.9027,0.9081,0.9118,0.9159,0.9198,0.9233,0.9282,0.9345,0.9363,0.9425,0.9478,0.9562,0.9597,0.9647,0.9644,0.9659,0.9663,0.9666,0.9665,0.9584,0.9659,0.9659,0.9659,0.9659,0.9659,0,0.9003,0.9035,0.9084,0.9145,0.9187,0.9195,0.9245,0.928,0.9334,0.938,0.9428,0.9497,0.9555,0.9602,0.9662,0.9693,0.9701,0.9708,0.9706,0.9713,0.9665,0.965,0.9701,0.9701,0.9701,0.9701,0.9701,0.9701,0.9039,0.9099,0.912,0.92,0.9233,0.9292,0.932,0.9359,0.9397,0.9471,0.9519,0.9549,0.9596,0.966,0.9714,0.9727,0.9748,0.9753,0.9767,0.9721,0.9716,0.9712,0.9697,0.9757,0.9757,0.981,0.9811,0.9811]},{"header":{"parameterUnit":"m.s-1","parameterCategory":1,"la1":30.2991,"la2":30.254,"lo1":-89.0895,"lo2":-89.0444,"dy":0.0017,"dx":0.0017,"nx":28,"ny":28,"refTime":"2025-08-20T03:00:00:Z","depth":0,"parameterNumber":3,"parameterNumberName":"V-component_of_WINDS"},"data":[0,0,0,0,0,0,0,0,0,0,0,0,0,0,0,0,0,0,0,0,0,0,0,0,0,0,0,0,0,0,0,0,0,0,0,0,0,0,0,0,0,0,0,0,0,0,0,0,0,0,0,0,0,0,0,0,0,0,1.7907,1.7907,0,1.7887,1.7887,1.7887,1.7917,1.7918,1.7919,1.792,1.7893,1.7891,1.789,0,0,0,0,0,0,0,0,0,0,0,0,0,1.7965,1.7963,1.7907,1.7907,1.7906,1.7887,1.7887,1.7887,1.7917,1.7918,1.7919,1.792,1.7894,1.7892,1.7889,0,0,0,0,0,0,0,0,0,0,0,0,0,1.7941,1.7963,1.7907,1.7919,1.792,1.7887,1.7887,1.7886,1.7916,1.7918,1.792,1.7921,1.7894,1.7892,1.7889,1.7841,0,0,1.7881,1.788,0,0,0,0,0,0,0,0,1.7943,1.7939,1.7918,1.7918,1.7919,1.7906,1.7897,1.7871,1.7916,1.7918,1.792,1.7922,1.7896,1.7893,1.7886,1.784,1.7839,1.7881,1.788,1.7878,1.7878,0,0,0,0,0,0,0,1.7944,1.794,1.7899,1.7917,1.7918,1.7924,1.7922,1.7893,1.7898,1.7918,1.792,1.7917,1.7896,1.7888,1.7885,1.7838,1.7881,1.7879,1.7877,1.7876,1.7752,1.775,0,0,0,0,0,0,1.7945,1.7941,1.7899,1.7898,1.7935,1.7921,1.792,1.7909,1.7898,1.7898,1.7916,1.7919,1.7892,1.7888,1.7884,1.7827,1.7878,1.7876,1.7875,1.7753,1.7751,1.7749,0,0,0,0,0,0,1.7946,1.7941,1.79,1.792,1.7916,1.7919,1.7906,1.7907,1.7899,1.7897,1.7897,1.7907,1.7893,1.7888,1.7852,1.7826,1.7875,1.7873,1.7755,1.7753,1.775,1.7711,0,0,0,0,0,0,1.7948,1.7942,1.7925,1.792,1.7915,1.787,1.7904,1.7906,1.7895,1.7899,1.7889,1.7888,1.7894,1.7856,1.785,1.7823,1.7871,1.7758,1.7754,1.7751,1.7715,1.7708,1.7702,0,0,0,0,0,1.795,1.7913,1.7924,1.7918,1.7894,1.7868,1.7865,1.7874,1.7893,1.7875,1.7874,1.7889,1.7831,1.7852,1.7845,1.7818,1.7759,1.7755,1.7751,1.7718,1.7709,1.7702,0,0,0,0,0,0,1.7912,1.7912,1.7924,1.7885,1.7877,1.7874,1.7851,1.7864,1.7848,1.7852,1.7862,1.7859,1.782,1.7816,1.7839,1.7771,1.7798,1.7792,1.7775,1.7766,1.776,1.7761,1.7868,0,0,0,0,0,1.7899,1.7881,1.7882,1.7847,1.7842,1.7847,1.7837,1.7845,1.7835,1.7831,1.7827,1.7816,1.7795,1.7781,1.7762,1.7715,1.7712,1.7693,1.7687,1.7681,1.7675,1.7649,1.764,1.7736,1.7736,1.7736,0,0,1.7872,1.787,1.7857,1.7839,1.7834,1.7812,1.7844,1.782,1.7803,1.7827,1.7793,1.779,1.7777,1.7736,1.7717,1.7731,1.7649,1.7676,1.7672,1.7669,1.7644,1.7635,1.7627,1.7734,1.7734,1.7734,0,0,1.7811,1.7809,1.778,1.7774,1.7766,1.777,1.7763,1.7759,1.7758,1.7725,1.7742,1.7722,1.7686,1.7676,1.7667,1.7604,1.7616,1.7598,1.7562,1.7536,1.7529,1.7522,1.7498,1.749,1.7593,1.7593,1.7592,0,1.7778,1.7748,1.7762,1.7737,1.7728,1.7751,1.772,1.7714,1.7699,1.7691,1.7707,1.7663,1.7657,1.7613,1.7598,1.759,1.7581,1.7598,1.7529,1.7523,1.7516,1.7494,1.7485,1.759,1.759,1.7591,1.7591,0,1.7707,1.7686,1.7663,1.765,1.7639,1.7611,1.7619,1.7605,1.7615,1.7616,1.7582,1.7575,1.7555,1.7546,1.7553,1.7503,1.7511,1.7528,1.7555,1.7505,1.7483,1.7475,1.7587,1.7588,1.7588,1.7589,0,0,1.7619,1.7617,1.7608,1.7602,1.7596,1.7579,1.7552,1.7535,1.7522,1.7511,1.7487,1.7457,1.7474,1.7463,1.747,1.7448,1.7397,1.7468,1.7467,1.7453,1.7339,1.7325,1.7314,1.7407,1.7405,1.7404,1.7339,0,1.7557,1.7513,1.7525,1.7479,1.7459,1.7482,1.7458,1.7451,1.7452,1.7434,1.7434,1.7412,1.7436,1.743,1.7409,1.7408,1.7374,1.7413,1.7382,1.738,1.7382,1.7304,1.7288,1.7228,1.7331,1.733,1.7329,0,1.7479,1.7468,1.7421,1.7418,1.741,1.7389,1.7374,1.7357,1.7349,1.7351,1.734,1.7352,1.7323,1.7353,1.7312,1.7338,1.7327,1.7324,1.7322,1.7317,1.735,1.7295,1.7209,1.7199,1.7316,1.7317,1.7318,0,1.7417,1.7391,1.7359,1.7354,1.7351,1.7335,1.7332,1.7326,1.7315,1.7301,1.7294,1.7276,1.7266,1.7252,1.7258,1.7279,1.7215,1.7246,1.7214,1.7214,1.7197,1.7198,1.7106,1.7194,1.7194,1.7194,1.7194,0,1.7346,1.7315,1.7331,1.7311,1.7278,1.7292,1.7258,1.7258,1.7252,1.7232,1.725,1.723,1.724,1.722,1.7225,1.719,1.7185,1.7185,1.7186,1.7182,1.7181,1.7172,1.7176,1.7192,1.7192,1.7193,1.7193,0,1.727,1.728,1.7247,1.7247,1.7247,1.7222,1.7221,1.7202,1.7206,1.7179,1.7174,1.7178,1.7156,1.7162,1.7136,1.7139,1.7094,1.7102,1.7098,1.7099,1.7066,1.7068,1.6963,1.6949,1.7048,1.7047,1.7046,0,1.7223,1.72,1.7199,1.7188,1.7185,1.7166,1.7156,1.7169,1.7157,1.7147,1.7128,1.7108,1.7092,1.7054,1.7054,1.7035,1.704,1.7005,1.7037,1.7034,1.7037,1.7038,1.7035,1.6997,1.6996,1.6995,1.6995,0,1.7137,1.7143,1.7129,1.7115,1.7103,1.7093,1.7084,1.7073,1.7086,1.7071,1.7049,1.7037,1.7013,1.6992,1.6974,1.6969,1.6983,1.6985,1.6977,1.6971,1.6969,1.6968,1.7078,1.6987,1.6988,1.6988,1.6989,1.6989,1.7072,1.7053,1.705,1.7033,1.7029,1.702,1.7002,1.7005,1.6988,1.6971,1.698,1.6954,1.6946,1.6925,1.6918,1.6897,1.691,1.6898,1.6894,1.689,1.6886,1.6974,1.6894,1.6894,1.6894,1.6895,1.6895,0,1.6986,1.6986,1.697,1.6958,1.6945,1.6963,1.6954,1.6941,1.6919,1.6912,1.6897,1.6872,1.6852,1.6851,1.6832,1.6815,1.682,1.6809,1.6809,1.6807,1.6876,1.6885,1.6805,1.6805,1.6805,1.6805,1.6805,1.6805,1.6939,1.6908,1.6914,1.688,1.688,1.6857,1.685,1.6842,1.6837,1.6809,1.6793,1.6794,1.6789,1.677,1.6751,1.6752,1.6742,1.6728,1.673,1.6794,1.6803,1.6811,1.6819,1.6727,1.6726,1.6663,1.6662,1.6662]}]]